Location: Mont�gut
(43.6510°N, 0.6494°E)
Time: 10:01:06
(UTC+00:00)

Daily predictions for brighter satellites

Satellite Brightness Start Highest point End
(mag) Time Altitude Azimuth Time Altitude Azimuth Time Altitude Azimuth
BREEZE-M DEB (TANK) 3.2 19:57:40 10° NW 20:00:03 33° NNE 20:04:33 10° E
Cosmos 44 Rocket 4.3 19:56:06 10° S 20:00:28 28° ESE 20:04:53 10° NE
Cosmos 1408 2.6 19:57:00 10° S 20:00:39 87° E 20:04:18 10° N
Tsikada Rocket 4.4 19:55:29 10° SSW 20:01:39 73° W 20:07:56 10° N
Ariane Rocket 3.1 19:58:56 10° SSE 20:03:59 69° ENE 20:09:03 10° N
MOS 1 4.3 20:03:17 10° SSE 20:08:57 85° ENE 20:14:39 10° NNW
Cosmos 1818 3.9 20:04:28 10° SW 20:09:55 75° NW 20:15:25 10° NNE
Cosmos 1437 3.2 20:08:51 10° N 20:11:25 32° ENE 20:13:57 10° SE
OAO 2 Rocket 4.3 20:09:06 10° WSW 20:13:28 30° S 20:17:44 10° ESE
Cosmos 1633 4.1 20:13:14 10° SE 20:15:48 19° E 20:18:24 10° NE
Cosmos 1697 Rocket 3.1 20:11:35 10° NNW 20:17:08 52° ENE 20:22:30 11° SE
Helios 1A Rocket 4.2 20:15:57 10° S 20:19:44 39° W 20:23:33 10° NNW
ISS -1.3 20:17:55 10° NW 20:20:33 20° N 20:23:10 10° NE
ERS-2 2.0 20:17:40 10° NNE 20:21:21 84° ESE 20:24:58 10° SSW
Cosmos 2082 Rocket 2.8 20:18:48 10° SSE 20:23:48 34° ESE 20:28:50 10° NE
Cosmos 2221 2.9 20:20:43 10° N 20:24:51 46° ENE 20:28:47 11° SSE
Cosmos 1833 Rocket 2.6 20:22:19 10° SSW 20:27:56 76° ESE 20:33:35 10° NNE
USA 307 3.8 20:25:34 10° WNW 20:29:36 41° SW 20:33:17 12° SSE
Cosmos 2279 Rocket 4.0 20:25:42 10° N 20:31:55 82° E 20:38:07 10° S
SPOT 3 Rocket 3.6 20:27:03 10° SSE 20:32:13 68° ENE 20:37:26 10° N
Terra 3.7 20:29:21 10° E 20:32:18 16° ENE 20:35:13 10° NNE
BREEZE-M DEB (TANK) 3.2 20:29:53 10° SSW 20:33:02 49° SE 20:42:23 10° ENE
Cosmos 1242 Rocket 2.6 20:30:35 10° NNW 20:34:12 79° W 20:37:44 10° S
NOSS 3-4 (A) 3.7 20:31:02 10° SW 20:36:49 70° NW 20:43:03 10° NNE
NOSS 3-4 (C) 3.7 20:31:08 10° SW 20:36:55 71° NW 20:43:09 10° NE
Cosmos 773 Rocket 4.1 20:32:55 10° S 20:37:59 53° ESE 20:43:02 10° NNE
USA 276 4.3 20:36:58 10° WNW 20:39:43 26° N 20:42:27 10° NE
IGS 5A 3.6 20:38:46 10° S 20:42:54 73° WSW 20:47:03 10° NNW
ATLAS 2AS CENTAUR R/B 3.0 20:37:48 10° SSW 20:45:41 77° ESE 20:53:27 10° NE
USA 305 4.4 20:42:44 10° WNW 20:46:19 27° SW 20:49:27 12° S
USA 308 4.2 20:42:37 10° WNW 20:46:21 30° SW 20:49:28 13° S
Cosmos 1606 2.8 20:45:02 10° N 20:48:46 58° E 20:51:15 19° SSE
COSMOS 2406 3.3 20:44:20 10° SSW 20:50:00 81° WNW 20:55:44 10° NNE
Cosmos 2369 3.8 20:45:44 10° NNW 20:51:23 69° ENE 20:55:32 19° SE
ERBS 3.0 20:49:55 10° NW 20:53:00 41° NE 20:54:49 20° E
Landsat 7 4.2 20:52:37 10° S 20:57:19 63° WSW 21:02:03 10° NNW
Cosmos 2151 3.6 20:57:41 22° SE 20:59:48 37° E 21:03:43 10° NNE
Nadezhda 4 Rocket 3.9 20:54:53 10° S 21:00:58 70° E 21:07:09 10° NNE
Cosmos 1980 Rocket 2.3 20:57:36 10° NNW 21:03:11 63° ENE 21:06:48 22° SE
GP-B 3.9 20:59:11 10° NNE 21:03:15 34° E 21:05:05 24° SE
ERS-1 Rocket 3.5 21:00:53 21° SE 21:03:52 44° ENE 21:08:38 10° N
USA 267 3.5 20:57:48 10° ENE 21:04:03 46° SE 21:10:16 10° SSW
Cosmos 1842 Rocket 3.8 20:59:36 10° NNW 21:04:04 70° W 21:07:48 15° S
Spot 2 Rocket 3.6 21:01:00 20° SSE 21:04:29 65° ENE 21:09:34 10° N
ATLAS 3B R/B 3.2 20:58:50 10° NNW 21:05:46 54° NE 21:11:03 19° ESE
Cosmos 2058 4.1 21:03:40 10° SSW 21:07:37 42° WNW 21:11:38 10° N
Cosmos 2322 Rocket 4.0 21:06:06 10° N 21:10:03 19° NE 21:13:47 11° E
Meteor 2-19 Rocket 4.5 21:10:39 17° S 21:15:18 61° E 21:21:15 10° NNE
Cosmos 1076 Rocket 3.6 21:12:40 13° S 21:16:32 81° W 21:20:55 10° N
Cosmos 1538 Rocket 4.0 21:12:59 14° S 21:17:24 59° ESE 21:22:31 10° NNE
BREEZE-M DEB (TANK) 3.6 21:15:13 10° W 21:17:48 32° NNW 21:19:23 11° NE
Resurs 01 Rocket 3.3 21:16:44 10° SSW 21:20:37 30° W 21:24:34 10° NW
Cosmos 158 Rocket 4.2 21:19:19 25° SSE 21:21:55 46° ESE 21:26:54 10° NNE
Cosmos 2098 Rocket 2.7 21:21:49 23° SSW 21:23:24 55° W 21:26:32 10° N
SPOT 1/Viking Rocket 4.3 21:26:32 16° S 21:30:33 49° W 21:35:37 10° NNW
H-2A R/B 4.3 21:30:05 10° NNE 21:33:51 32° E 21:34:07 32° ESE
SL-16 R/B 3.2 21:30:14 10° N 21:35:24 34° NE 21:38:08 23° ESE
RESURS DK-1 2.8 21:32:47 10° SW 21:36:54 61° WNW 21:41:02 10° NNE
USA 234 4.1 21:31:41 11° E 21:37:38 44° NNE 21:43:46 10° NW
Cosmos 1271 Rocket 2.9 21:37:59 10° N 21:41:55 58° ENE 21:42:41 48° SE
ARIANE 5 R/B 3.1 21:45:54 29° SSW 21:47:58 56° W 21:52:23 10° NNW
SPOT 5 2.7 21:46:28 37° S 21:48:04 70° WSW 21:52:24 10° NNW
Cosmos 304 Rocket 3.8 21:46:46 10° NNW 21:51:33 65° ENE 21:52:54 44° SE
Cosmos 1933 3.4 21:48:29 10° NNW 21:52:33 74° W 21:53:35 47° SSW
Meteor 1-26 Rocket 4.3 21:48:46 10° N 21:54:48 86° ENE 21:57:21 36° SSE
BREEZE-M DEB (TANK) 4.2 21:53:00 10° WNW 21:57:05 76° SSW 22:04:29 24° SE
ISS -2.5 21:54:51 10° NW 21:58:01 36° NNE 21:58:48 32° NE
Cosmos 1697 Rocket 4.4 21:56:16 10° NW 22:00:43 24° WSW 22:04:15 14° SSW
Cosmos 923 Rocket 4.0 22:02:24 42° S 22:04:09 68° ESE 22:09:29 10° NNE
Cosmos 371 Rocket 3.9 22:03:02 10° NNW 22:07:40 48° WSW 22:09:09 36° SSW
Cosmos 2082 Rocket 3.6 22:02:36 10° SW 22:07:47 38° WNW 22:13:04 10° NNE
Cosmos 2278 4.2 22:03:02 10° NW 22:08:29 50° WSW 22:10:39 33° SSW
Terra 2.0 22:08:03 41° SSW 22:09:31 63° WSW 22:14:16 10° NNW
USA 276 3.8 22:13:40 10° NW 22:16:29 29° NNE 22:17:00 28° NNE
Cosmos 2056 Rocket 4.3 22:12:55 10° N 22:18:01 40° ENE 22:19:23 34° E
Cosmos 2333 Rocket 4.2 22:14:35 10° N 22:18:35 19° NE 22:21:43 13° E
Cosmos 1515 Rocket 4.2 22:14:39 10° N 22:18:53 41° ENE 22:19:05 41° E
Gbstr 26 Del rocket 3.8 22:15:51 10° NW 22:19:31 43° NNE 22:20:51 32° ENE
Cosmos 1862 3.5 22:25:14 60° ENE 22:25:14 60° ENE 22:28:50 10° NNE
Cosmos 2360 Rocket 3.1 22:20:44 10° NNW 22:25:59 38° ENE 22:27:48 30° E
ALOS 2 4.2 22:26:42 22° ENE 22:27:08 23° ENE 22:30:33 10° NNE
Cosmos 1766 Rocket 3.8 22:27:28 53° SW 22:28:17 67° W 22:32:41 10° N
Cosmos 1809 Rocket 4.5 22:28:48 37° SSW 22:31:26 77° W 22:37:37 10° N
Cosmos 1812 2.8 22:30:41 10° N 22:34:14 73° NNW 22:34:14 73° NNW
Cosmos 1782 3.8 22:32:24 10° NNW 22:36:09 38° W 22:36:29 38° WSW
Cosmos 2112 Rocket 3.9 22:37:57 58° SSW 22:39:02 87° ESE 22:44:23 10° NNE
Cosmos 1371 Rocket 4.1 22:33:41 10° NNW 22:39:03 67° ENE 22:39:57 57° ESE
Cosmos 1680 Rocket 3.5 22:39:42 48° SW 22:41:13 78° WNW 22:46:31 10° NNE
SL-27 R/B 4.3 22:43:08 24° NE 22:43:08 24° NE 22:44:52 10° NNE
Cosmos 1328 Rocket 3.8 22:38:14 10° NNW 22:42:38 61° W 22:42:54 59° WSW
Cosmos 1980 Rocket 4.0 22:42:44 10° NW 22:46:38 20° W 22:48:34 17° SW
USA 267 3.7 22:40:45 10° NE 22:47:10 60° NNW 22:53:35 10° WSW
Cosmos 1151 Rocket 4.1 22:49:51 10° NNW 22:53:47 34° W 22:54:11 33° WSW
IRIDIUM 106 4.4 22:49:35 10° N 22:54:45 59° E 22:55:07 57° ESE
Cosmos 2322 Rocket 2.0 22:49:08 10° NNW 22:54:47 80° WSW 22:55:35 65° S
ATLAS 3B R/B 3.6 22:49:50 10° NW 22:56:19 38° WSW 22:58:17 32° SW
Cosmos 2315 Rocket 4.2 22:55:29 10° N 23:01:44 61° E 23:03:02 51° SE
Meteor 2-6 Rocket 4.4 22:57:50 10° NNW 23:03:09 56° W 23:04:00 50° SW
Cosmos 1500 Rocket 3.7 23:14:13 71° NNW 23:14:13 71° NNW 23:18:15 10° N
Cosmos 2237 4.1 23:08:12 10° NNW 23:13:54 75° WSW 23:14:27 68° SSW
Meteor 1-27 Rocket 3.6 23:09:02 10° N 23:14:40 84° E 23:15:18 71° SSE
COSMOS 2428 4.0 23:11:18 10° N 23:16:25 33° NE 23:18:24 26° E
SL-16 R/B 2.9 23:14:19 10° NW 23:19:32 38° WSW 23:19:59 38° WSW
Cosmos 1655 Rocket 4.3 23:18:09 44° SW 23:20:02 61° W 23:26:22 10° N
USA 234 3.2 23:19:00 56° SSE 23:20:24 73° SW 23:26:59 10° NW
Cosmos 1624 Rocket 4.1 23:16:08 10° NNW 23:21:14 59° WSW 23:21:19 59° WSW
Cosmos 2219 Rocket 3.0 23:17:51 10° NNW 23:23:12 43° ENE 23:24:30 37° E
Cosmos 292 Rocket 3.7 23:18:27 10° NNW 23:23:00 80° N 23:23:00 80° N
Spot 4 4.1 23:25:02 56° W 23:25:02 56° W 23:29:40 10° NNW
Cosmos 2266 Rocket 4.2 23:23:51 48° SW 23:25:21 62° W 23:31:28 10° N
Cosmos 2228 Rocket 3.3 23:26:18 10° N 23:30:09 66° NNW 23:30:09 66° NNW
Cosmos 1743 Rocket 4.1 23:32:04 52° WNW 23:32:04 52° WNW 23:36:15 10° N
Thor Agena Rocket 4.3 23:28:45 10° NNE 23:32:59 37° E 23:32:59 37° E
ISS -0.7 23:31:41 10° WNW 23:31:44 10° WNW 23:31:44 10° WNW
COSMOS 2455 2.9 23:35:08 58° ESE 23:35:09 58° ESE 23:41:04 10° NE
Cosmos 1420 Rocket 4.1 23:31:15 10° NNW 23:36:32 66° WSW 23:36:32 66° WSW
Nimbus 7 Rocket 4.3 23:33:33 10° NNE 23:39:36 73° ESE 23:40:13 67° SSE
Meteor 1-20 Rocket 4.0 23:47:32 81° S 23:47:50 88° ESE 23:53:29 10° N
Cosmos 1666 Rocket 4.2 23:49:24 49° NE 23:49:24 49° NE 23:52:55 10° NNE
Cosmos 1633 Rocket 4.0 23:49:55 41° ENE 23:49:55 41° ENE 23:53:16 10° NNE
Cosmos 1452 Rocket 3.4 23:45:50 10° NNW 23:51:07 85° ENE 23:51:09 85° E
Cosmos 972 Rocket 4.1 23:51:10 68° WSW 23:51:38 73° WNW 23:56:50 10° NNE
Sich 1 3.5 23:54:53 59° NNW 23:54:53 59° NNW 23:58:37 10° N
